Location: Ku?niki
(51.4449°N, 17.8974°E)
Time: 05:59:31
(UTC+00:00)

Cosmos 494 Rocket - Pass Details

Date: 18 September 2020
Orbit: 741 x 771 km, 74.1° (Epoch: 20 October)

Event Time Altitude Azimuth Distance (km) Brightness Sun altitude
Rises 18:14:51 0° 337° (NNW) 3,243 7.9 -13.0°
Reaches altitude 10° 18:17:20 10° 344° (NNW) 2,317 7.0 -13.4°
Maximum altitude 18:22:24 47° 58° (ENE) 1,020 4.4 -14.1°
Enters shadow 18:25:33 22° 122° (ESE) 1,649 5.1 -14.6°
